Temp
72 75 81 82 82 82 82 82 82 81 81 81 81 81 81 80 81 81 80 80 80 81 81 81 81 81 81 82 81 82 81 80 80 79 79 79 79 80 80 80 80 79 81
74 78 81 82 82 82 82 81 81 81 81 81 81 81 80 80 80 80 80 80 80 80 81 81 81 81 81 81 81 80 80 80 79 79 78 77 78 80 80 79 80 80 81
75 79 80 81 82 82 81 81 81 81 80 80 81 80 80 80 80 80 80 80 80 80 80 81 80 80 80 80 80 80 79 79 79 78 77 73 78 80 80 80 80 81 81
77 78 78 81 81 81 81 81 80 80 80 80 80 80 80 80 80 80 79 79 80 80 80 80 79 79 79 80 79 79 79 78 77 76 73 74 78 80 80 80 80 80 80
76 77 79 80 80 80 80 80 80 80 80 80 80 80 80 80 80 79 79 79 80 79 79 79 78 78 79 79 79 78 78 77 75 73 70 74 73 80 80 79 79 79 79
74 75 79 80 80 80 80 80 80 80 80 80 80 80 80 80 80 79 79 79 80 79 79 78 78 78 79 79 78 78 77 76 73 68 67 70 74 79 81 79 79 79 79
72 75 78 80 80 80 80 80 80 80 80 80 80 80 79 80 79 78 78 78 78 78 79 78 78 78 79 79 78 77 76 74 69 67 66 68 73 78 79 79 79 79 79
74 76 78 79 79 80 80 79 80 80 80 80 79 79 79 79 78 78 77 77 77 77 77 77 78 78 79 78 77 75 74 72 68 65 66 67 77 78 78 78 79 79 79
75 75 75 76 78 79 79 79 79 79 79 78 79 78 78 78 77 77 77 77 77 77 77 78 78 79 79 78 76 75 73 71 61 63 69 67 77 78 78 77 77 78 78
73 73 68 70 73 72 76 79 79 79 78 78 78 77 77 76 76 76 76 76 77 77 78 78 78 78 78 77 75 73 71 69 61 63 63 70 77 78 77 77 77 77 77
71 68 68 68 69 70 72 76 78 78 78 77 76 76 71 65 66 68 74 76 77 77 77 77 78 76 75 75 73 71 66 59 60 61 63 75 77 77 77 77 76 76 76
67 68 68 68 69 71 76 71 70 75 70 68 67 64 63 62 63 67 72 76 77 77 77 77 76 73 67 59 62 64 57 58 59 61 66 75 77 77 76 76 76 76 76
68 69 69 69 71 72 71 70 68 66 66 67 66 64 63 63 60 59 59 59 58 67 60 62 61 60 59 59 58 57 57 56 56 59 69 74 76 77 76 75 75 75 75
68 70 71 72 72 72 71 70 67 67 63 64 64 64 61 58 57 57 56 56 57 57 57 57 57 59 59 59 57 56 55 55 56 57 65 73 74 75 75 75 74 74 74
70 72 72 73 73 71 70 69 68 65 64 64 65 63 61 58 57 57 56 56 56 56 58 57 58 58 58 58 58 57 54 54 55 56 57 71 72 73 74 74 74 74 73
73 73 74 74 74 73 70 70 69 64 64 64 63 63 61 59 58 57 57 57 56 57 57 57 57 57 57 57 58 58 55 54 55 55 57 60 71 71 72 73 73 73 73
76 75 75 75 75 72 69 68 67 66 66 63 62 62 64 60 59 58 57 56 57 58 58 58 56 56 56 58 55 56 56 55 55 55 56 56 59 69 70 71 71 72 72
77 75 77 77 74 72 70 65 69 65 66 64 63 63 65 62 61 58 58 58 58 59 57 56 56 55 54 55 54 54 54 55 54 54 55 55 55 57 64 69 70 71 71
73 75 75 73 70 67 64 62 61 61 65 65 62 62 63 62 62 59 58 57 58 58 57 59 56 56 55 54 58 55 54 54 54 59 54 55 54 54 54 65 69 68 69
71 72 71 68 66 66 63 62 61 61 61 66 65 62 62 61 61 59 57 57 57 56 55 57 55 53 53 53 60 57 52 53 53 53 53 57 54 55 54 55 53 57 68
70 69 69 67 65 63 61 61 59 59 59 62 63 64 63 64 61 58 58 57 56 56 55 55 53 54 52 51 52 52 52 51 50 50 51 51 53 54 53 53 52 52 54
70 68 69 68 63 63 62 61 60 61 60 63 62 63 62 62 61 61 58 57 56 55 55 54 53 50 50 50 49 45 45 50 51 51 50 53 51 52 54 55 52 52 51
69 69 67 63 64 63 63 61 60 59 58 58 60 61 61 63 61 61 59 58 56 54 54 54 53 53 50 49 50 49 43 42 42 48 49 50 49 49 49 50 51 52 51
68 69 66 63 63 62 61 62 61 60 58 56 57 59 60 61 60 61 59 58 57 55 54 54 55 52 50 49 48 52 47 47 45 43 46 46 47 50 47 47 48 49 49
66 65 63 62 62 61 62 61 60 59 58 57 57 58 59 59 60 59 58 56 55 54 54 54 52 51 49 48 47 46 45 43 42 41 39 43 46 46 46 46 46 45 47
66 64 63 62 62 61 61 60 59 57 55 56 56 55 56 56 57 61 59 58 57 53 52 51 50 49 48 47 46 45 45 44 42 40 37 37 39 43 45 46 45 45 46
MSLP
1012.99 1012.79 1012.84 1013.05 1013.37 1013.57 1013.89 1013.98 1014.06 1014.20 1014.39 1014.61 1014.74 1014.94 1015.10 1015.27 1015.35 1015.49 1015.65 1015.74 1015.78 1015.71 1015.56 1015.63 1015.69 1015.60 1015.48 1015.34 1015.15 1015.02 1015.08 1015.11 1015.07 1014.91 1014.65 1014.41 1014.18 1013.95 1013.84 1013.70 1013.58 1013.41 1013.15
1012.43 1012.81 1012.93 1013.20 1013.37 1013.62 1013.81 1014.04 1014.25 1014.45 1014.60 1014.78 1014.92 1015.11 1015.29 1015.51 1015.67 1015.74 1015.80 1015.87 1015.92 1015.95 1015.85 1015.89 1015.90 1015.93 1015.81 1015.69 1015.62 1015.56 1015.54 1015.45 1015.49 1015.39 1015.19 1014.87 1014.59 1014.41 1014.30 1014.17 1013.82 1013.68 1013.54
1012.23 1012.61 1012.94 1013.20 1013.63 1013.78 1014.00 1014.16 1014.35 1014.59 1014.81 1015.03 1015.16 1015.32 1015.55 1015.76 1015.88 1016.00 1016.08 1016.11 1016.12 1016.09 1016.07 1016.14 1016.22 1016.20 1016.15 1016.02 1016.04 1016.00 1015.98 1015.91 1015.86 1015.78 1015.71 1015.54 1015.13 1014.89 1014.73 1014.62 1014.37 1014.12 1014.05
1012.40 1012.80 1013.16 1013.29 1013.71 1014.12 1014.35 1014.46 1014.65 1014.78 1014.95 1015.18 1015.49 1015.67 1015.81 1015.90 1016.03 1016.22 1016.31 1016.35 1016.28 1016.22 1016.29 1016.40 1016.57 1016.55 1016.51 1016.35 1016.43 1016.58 1016.55 1016.48 1016.36 1016.22 1016.18 1015.99 1015.68 1015.49 1015.29 1015.01 1014.89 1014.71 1014.64
1012.44 1012.80 1013.32 1013.75 1013.98 1014.23 1014.67 1014.93 1014.99 1015.07 1015.15 1015.37 1015.59 1015.78 1015.99 1016.13 1016.20 1016.42 1016.50 1016.54 1016.45 1016.45 1016.58 1016.73 1016.90 1016.97 1016.89 1016.64 1016.89 1017.04 1017.11 1017.09 1017.03 1016.96 1016.68 1016.47 1016.20 1015.91 1015.87 1015.69 1015.55 1015.31 1015.16
1012.49 1012.97 1013.39 1013.73 1014.29 1014.52 1014.64 1015.04 1015.36 1015.41 1015.48 1015.53 1015.71 1015.90 1016.02 1016.19 1016.45 1016.66 1016.75 1016.68 1016.71 1016.81 1016.92 1017.11 1017.28 1017.28 1017.18 1017.03 1017.31 1017.50 1017.59 1017.68 1017.68 1017.67 1017.46 1017.10 1016.68 1016.40 1016.15 1016.21 1016.00 1015.87 1015.74
1012.85 1013.12 1013.40 1013.83 1014.38 1014.67 1014.81 1015.09 1015.45 1015.63 1015.75 1015.74 1015.79 1015.88 1016.15 1016.31 1016.70 1017.01 1017.11 1017.18 1017.19 1017.21 1017.29 1017.55 1017.64 1017.64 1017.57 1017.58 1017.78 1017.98 1018.12 1018.18 1018.23 1018.20 1018.04 1017.74 1017.39 1017.03 1016.82 1016.65 1016.51 1016.32 1016.22
1012.89 1013.29 1013.62 1013.99 1014.43 1014.69 1014.81 1015.14 1015.47 1015.74 1015.83 1015.85 1015.97 1016.19 1016.43 1016.68 1017.02 1017.29 1017.47 1017.63 1017.72 1017.78 1017.87 1017.90 1017.99 1017.99 1018.01 1018.03 1018.32 1018.55 1018.68 1018.73 1018.68 1018.69 1018.57 1018.22 1017.86 1017.67 1017.41 1017.32 1017.01 1016.85 1016.66
1012.84 1013.50 1014.05 1014.23 1014.48 1014.85 1014.91 1015.07 1015.36 1015.71 1015.98 1016.08 1016.26 1016.45 1016.64 1016.95 1017.27 1017.57 1017.78 1017.93 1018.08 1018.15 1018.24 1018.25 1018.27 1018.31 1018.36 1018.54 1018.80 1018.99 1019.15 1019.22 1019.27 1019.19 1018.85 1018.69 1018.36 1018.20 1018.05 1017.88 1017.72 1017.54 1017.37
1013.20 1013.66 1014.08 1014.59 1014.74 1015.03 1015.11 1015.09 1015.43 1015.73 1016.07 1016.36 1016.60 1016.86 1017.07 1017.32 1017.60 1017.82 1018.05 1018.21 1018.34 1018.43 1018.54 1018.53 1018.63 1018.63 1018.64 1018.96 1019.23 1019.40 1019.52 1019.69 1019.76 1019.62 1019.34 1018.97 1018.76 1018.70 1018.59 1018.52 1018.42 1018.26 1018.01
1013.72 1014.06 1014.19 1014.59 1015.00 1015.23 1015.33 1015.12 1015.44 1015.80 1016.16 1016.54 1016.93 1017.20 1017.59 1017.89 1018.09 1018.24 1018.31 1018.44 1018.59 1018.73 1018.86 1018.93 1019.00 1019.19 1019.26 1019.42 1019.77 1020.01 1020.15 1020.26 1020.13 1020.06 1019.72 1019.36 1019.25 1019.16 1019.15 1019.05 1019.01 1018.92 1018.78
1013.84 1014.27 1014.47 1014.62 1014.85 1015.17 1015.43 1015.54 1015.67 1016.02 1016.48 1016.87 1017.29 1017.70 1017.92 1018.19 1018.36 1018.51 1018.59 1018.65 1018.78 1019.00 1019.02 1019.16 1019.34 1019.67 1019.97 1020.27 1020.49 1020.62 1020.89 1020.74 1020.67 1020.47 1020.03 1019.73 1019.63 1019.58 1019.68 1019.67 1019.59 1019.58 1019.44
1013.27 1013.94 1014.38 1014.70 1014.92 1014.89 1015.37 1015.86 1016.16 1016.32 1016.77 1017.14 1017.56 1017.95 1018.20 1018.43 1018.64 1018.90 1019.13 1019.33 1019.49 1019.61 1019.93 1019.92 1020.16 1020.28 1020.49 1020.65 1020.99 1021.21 1021.33 1021.28 1021.30 1021.09 1020.62 1020.29 1020.03 1020.02 1020.10 1020.17 1020.25 1020.19 1020.08
1013.27 1013.31 1013.84 1014.39 1014.60 1014.75 1015.15 1015.62 1016.20 1016.72 1016.89 1017.24 1017.59 1017.96 1018.41 1018.87 1019.10 1019.38 1019.63 1019.75 1019.83 1020.01 1020.25 1020.42 1020.63 1020.73 1020.90 1021.06 1021.27 1021.67 1021.77 1021.84 1021.91 1021.65 1021.35 1021.02 1020.74 1020.57 1020.71 1020.82 1020.81 1020.74 1020.75
1013.13 1013.10 1013.47 1013.90 1014.38 1014.61 1015.20 1015.72 1016.08 1016.74 1017.10 1017.17 1017.38 1017.76 1018.25 1018.80 1019.10 1019.49 1019.84 1020.00 1020.13 1020.18 1020.31 1020.58 1020.73 1021.02 1021.28 1021.43 1021.62 1021.79 1022.11 1022.25 1022.28 1022.22 1022.03 1021.68 1021.50 1021.34 1021.33 1021.36 1021.28 1021.27 1021.29
1012.59 1012.72 1013.20 1013.32 1013.81 1014.40 1014.91 1015.41 1015.76 1016.29 1016.74 1017.07 1017.25 1017.66 1018.29 1018.60 1018.93 1019.30 1019.83 1020.05 1020.25 1020.29 1020.49 1020.65 1020.94 1021.13 1021.44 1021.70 1021.88 1022.04 1022.11 1022.26 1022.36 1022.44 1022.42 1022.32 1022.06 1022.00 1021.86 1021.87 1021.86 1021.79 1021.79
1011.28 1011.83 1012.57 1012.91 1013.47 1014.14 1014.64 1015.13 1015.66 1016.07 1016.48 1017.08 1017.20 1017.57 1018.20 1018.48 1018.95 1019.28 1019.72 1020.03 1020.16 1020.37 1020.67 1020.84 1021.26 1021.41 1021.63 1021.84 1022.25 1022.42 1022.45 1022.42 1022.47 1022.53 1022.55 1022.72 1022.60 1022.44 1022.31 1022.26 1022.21 1022.28 1022.17
1010.70 1011.20 1011.70 1012.55 1013.26 1013.66 1014.20 1014.84 1015.23 1015.92 1016.23 1016.82 1017.16 1017.44 1017.92 1018.50 1018.81 1019.27 1019.68 1020.01 1020.22 1020.32 1020.83 1021.17 1021.36 1021.87 1022.04 1022.14 1022.44 1022.69 1022.67 1022.69 1022.84 1022.65 1022.70 1022.79 1022.85 1022.94 1022.75 1022.55 1022.49 1022.43 1022.42
1010.15 1010.60 1011.16 1012.30 1012.81 1013.42 1013.77 1014.28 1015.08 1015.69 1015.91 1016.45 1016.87 1017.27 1017.63 1018.22 1018.74 1019.13 1019.51 1019.94 1020.25 1020.57 1020.97 1021.09 1021.80 1021.95 1022.30 1022.30 1022.48 1022.65 1022.69 1022.65 1022.75 1022.77 1022.84 1022.88 1022.90 1022.98 1023.01 1022.83 1022.72 1022.72 1022.66
1009.90 1010.69 1011.68 1012.43 1012.61 1012.99 1013.95 1014.75 1014.71 1015.76 1016.26 1016.12 1016.59 1017.27 1017.63 1018.11 1018.56 1019.17 1019.69 1020.01 1020.21 1020.65 1021.32 1021.36 1021.75 1022.12 1022.39 1022.46 1022.48 1022.56 1022.80 1022.75 1022.74 1022.92 1023.01 1022.87 1022.97 1023.04 1023.12 1023.18 1023.28 1023.12 1022.86
1010.02 1011.11 1011.30 1011.99 1012.79 1013.38 1014.02 1015.07 1015.84 1015.93 1016.46 1016.46 1016.79 1017.26 1017.70 1017.76 1018.56 1019.19 1019.60 1020.04 1020.19 1020.72 1021.19 1021.60 1021.95 1022.21 1022.60 1022.64 1022.91 1023.08 1022.97 1022.96 1022.88 1022.96 1023.02 1023.21 1023.21 1023.13 1023.27 1023.32 1023.47 1023.44 1023.26
1009.79 1010.73 1011.17 1011.24 1011.91 1012.94 1014.18 1014.55 1015.25 1015.73 1016.36 1016.55 1017.26 1017.56 1017.90 1018.01 1018.38 1019.03 1019.54 1019.94 1020.16 1020.80 1021.21 1021.63 1021.85 1022.54 1022.75 1022.79 1023.41 1023.96 1024.08 1023.57 1023.22 1023.27 1023.27 1023.09 1023.23 1023.24 1023.29 1023.31 1023.42 1023.56 1023.57
1009.38 1010.17 1010.82 1011.40 1012.14 1012.86 1013.89 1014.66 1015.34 1015.88 1016.56 1017.27 1017.51 1017.99 1018.00 1017.98 1018.38 1018.72 1019.25 1019.83 1020.25 1020.63 1021.09 1021.44 1021.73 1022.12 1022.75 1023.02 1023.02 1023.62 1024.54 1024.60 1024.37 1023.67 1023.47 1023.50 1023.60 1023.70 1023.69 1023.56 1023.53 1023.59 1023.61
1009.72 1010.25 1010.61 1010.94 1012.15 1012.99 1013.68 1014.22 1014.75 1015.30 1016.19 1016.49 1016.77 1017.41 1018.13 1017.98 1018.41 1018.78 1019.27 1019.61 1020.08 1020.50 1020.84 1021.11 1021.53 1021.87 1022.43 1023.09 1023.36 1023.30 1023.61 1024.04 1024.54 1024.79 1024.05 1023.80 1023.78 1023.77 1023.88 1023.87 1023.79 1023.75 1023.69
1010.22 1009.41 1010.95 1011.44 1012.37 1013.11 1013.54 1014.10 1014.79 1015.21 1015.95 1016.29 1016.71 1017.26 1018.14 1018.32 1018.47 1018.77 1019.25 1019.67 1020.02 1020.32 1020.56 1021.04 1021.49 1021.89 1022.32 1022.88 1023.34 1023.64 1023.89 1024.14 1024.37 1024.92 1024.95 1024.47 1024.04 1023.92 1023.92 1023.89 1023.90 1023.89 1023.68
1008.66 1010.11 1010.86 1011.40 1012.27 1013.15 1013.63 1014.34 1014.64 1015.33 1016.37 1017.19 1017.27 1017.72 1018.20 1018.32 1018.69 1018.81 1019.15 1019.57 1019.94 1020.37 1020.84 1021.21 1021.57 1021.98 1022.35 1022.67 1023.13 1023.52 1023.89 1024.19 1024.45 1024.84 1025.23 1025.17 1025.10 1024.49 1023.95 1023.65 1023.71 1023.66 1023.53
Wind_Speed
8 9 17 18 16 17 16 16 17 16 16 17 16 16 16 16 16 16 15 15 14 14 15 17 17 17 18 20 21 19 19 21 22 22 22 21 20 21 19 18 16 13 20
13 11 19 19 19 18 17 17 17 17 17 17 17 17 16 16 15 15 14 14 14 13 13 16 17 17 17 19 21 21 21 22 20 19 19 17 20 21 21 19 17 16 20
14 12 15 19 17 17 17 18 17 17 17 16 16 15 14 14 15 14 14 13 13 12 14 16 16 16 18 19 21 20 21 22 21 20 16 7 12 22 22 20 19 19 19
13 10 12 19 17 16 16 16 15 15 16 15 14 14 14 15 15 15 14 13 13 12 17 16 15 16 18 17 21 22 22 22 21 19 9 9 10 21 21 21 20 19 18
12 11 14 19 17 17 15 14 15 15 15 16 15 15 15 15 16 15 15 14 14 15 16 16 16 17 17 18 21 22 22 22 21 14 10 10 7 16 20 20 18 20 19
11 10 17 19 18 17 17 16 15 16 16 16 17 16 16 15 17 15 15 15 16 16 16 17 16 17 19 20 21 20 20 20 16 9 8 9 10 20 19 19 19 20 20
10 10 13 19 18 17 18 17 16 16 16 17 17 17 15 18 16 15 15 15 15 15 15 15 15 16 19 19 20 20 19 18 9 8 7 6 9 18 19 19 19 20 20
13 11 12 18 19 18 18 18 17 16 17 16 18 17 16 17 16 15 15 15 15 15 15 14 15 16 17 19 20 19 19 16 10 7 7 5 15 18 18 19 18 19 19
14 11 10 11 14 17 18 18 18 17 16 17 19 17 16 16 15 14 14 14 15 15 14 14 14 15 17 20 20 19 19 17 7 5 6 4 16 18 18 19 19 20 20
12 11 8 7 8 7 9 16 16 16 17 18 18 17 17 15 14 13 12 13 13 14 14 15 15 16 16 20 19 19 18 16 6 5 5 6 16 17 18 18 19 19 18
10 9 8 8 6 5 5 11 16 20 19 18 16 17 12 5 6 8 11 12 13 13 12 12 13 15 17 19 19 18 15 4 5 4 3 13 15 17 18 18 18 18 18
13 10 9 9 8 7 7 6 6 9 6 5 6 7 5 6 5 6 8 12 14 11 10 10 11 14 13 5 6 12 4 5 5 4 4 14 16 17 18 18 18 18 18
16 11 12 10 9 9 8 5 3 3 4 5 8 6 5 4 4 4 3 3 3 9 4 7 7 5 7 5 5 5 5 5 4 4 7 16 16 17 18 19 19 18 18
16 16 15 14 13 9 7 6 5 5 4 5 5 7 5 3 4 4 3 2 2 3 5 5 4 5 7 7 7 6 6 5 3 3 7 15 16 17 17 16 16 17 17
15 15 17 16 13 9 9 6 6 5 5 6 7 6 6 5 5 5 3 2 3 3 4 4 5 5 6 6 5 7 6 6 5 3 3 14 15 15 15 16 16 16 17
17 17 17 17 14 12 9 10 8 5 6 6 6 6 6 5 5 5 4 4 4 3 3 4 4 4 4 4 5 4 6 5 5 5 3 5 12 13 13 14 14 14 14
19 19 18 17 15 13 11 8 7 6 7 6 6 7 8 6 6 6 5 4 5 3 6 5 4 4 5 3 5 4 3 4 4 5 4 3 4 9 10 10 11 11 13
19 20 19 15 16 15 13 8 8 6 7 6 5 6 8 7 7 6 5 4 4 5 4 4 3 4 4 4 3 2 2 2 1 4 3 3 2 2 4 7 8 8 9
15 18 18 15 15 11 10 9 8 7 6 6 5 5 7 7 7 6 5 5 5 5 4 3 3 3 2 3 2 3 2 1 3 2 4 3 4 3 2 1 4 3 4
13 14 15 14 16 14 8 6 8 5 2 6 5 5 7 6 7 6 5 6 5 5 3 3 3 3 2 1 2 3 2 2 1 3 4 3 3 1 1 1 3 2 3
14 15 18 17 12 10 9 9 5 7 4 2 4 7 6 7 7 6 5 5 5 5 4 3 3 3 2 2 3 4 3 3 3 2 1 1 1 2 2 1 2 3 4
18 19 18 17 14 11 9 4 3 6 3 3 3 3 6 6 7 6 6 5 6 5 5 4 3 2 2 1 3 2 3 5 4 4 1 1 1 2 3 4 4 4 3
17 18 16 16 16 12 10 7 5 5 4 3 2 2 4 7 6 7 7 6 6 4 5 4 4 5 3 0 1 5 2 3 2 3 2 2 3 2 3 3 5 4 4
9 10 11 14 14 10 11 7 12 7 8 4 4 4 4 6 7 6 7 6 6 4 5 4 4 3 4 3 1 0 1 4 4 3 3 2 3 3 3 3 4 5 5
11 4 9 12 10 8 8 8 8 6 2 3 4 7 3 4 6 7 7 6 6 4 4 5 4 4 3 3 3 2 1 2 2 3 3 4 3 2 1 2 2 2 4
12 11 13 13 9 10 9 8 8 8 8 4 4 5 4 3 4 4 5 5 5 5 5 5 5 5 4 4 2 2 3 2 2 2 1 3 3 4 3 4 3 3 4
Wind_Direction
166 163 161 150 138 130 128 123 119 117 114 112 108 107 102 100 95 91 88 85 81 74 87 82 77 75 69 61 71 88 73 66 59 55 51 52 55 57 53 52 58 57 59
143 162 154 147 141 136 130 124 120 119 117 114 111 110 104 99 97 96 93 90 86 79 86 84 78 73 66 61 78 84 79 71 63 58 48 38 46 57 55 51 54 59 60
146 159 148 142 141 139 133 128 123 121 116 112 110 108 105 103 99 95 93 90 88 86 96 89 77 70 62 61 81 76 75 68 59 48 45 35 48 52 53 57 52 55 58
145 147 144 140 141 143 137 130 130 126 120 119 114 112 109 105 103 99 97 95 94 91 99 91 78 69 63 67 83 77 76 71 60 41 35 30 52 52 51 51 56 54 57
139 142 148 139 142 139 137 136 133 130 126 123 122 117 113 111 109 103 99 98 96 91 92 90 78 70 62 82 84 81 77 73 62 41 20 40 38 60 54 50 54 54 55
133 137 142 141 145 143 139 139 137 135 132 129 126 124 117 117 105 102 99 98 97 91 94 86 80 77 66 92 90 84 80 72 59 37 25 20 35 54 58 54 51 58 56
135 140 142 144 147 144 141 139 139 137 135 135 134 123 116 114 107 103 97 94 93 90 85 84 85 83 79 83 89 86 82 72 57 41 23 22 50 55 54 58 55 57 57
142 140 143 148 150 147 143 141 142 143 142 139 127 119 118 110 108 103 100 96 95 93 91 87 85 85 80 87 86 81 76 70 52 33 24 23 58 59 56 55 58 57 57
142 142 144 148 149 149 148 147 149 148 135 131 122 122 118 118 111 106 101 100 98 96 92 88 87 84 81 88 87 81 75 71 57 37 27 21 63 62 60 56 53 58 54
144 142 138 142 140 148 154 148 143 141 139 132 124 124 119 117 114 109 104 104 102 100 96 90 85 77 82 93 87 79 75 67 47 35 23 54 69 66 65 60 54 55 54
142 146 141 137 143 147 143 147 142 140 134 131 130 125 108 93 101 111 115 109 108 106 102 97 83 73 78 93 87 83 75 48 47 26 7 69 72 72 67 64 61 56 54
155 159 152 150 152 153 148 121 124 136 124 117 111 115 114 120 123 114 117 115 109 90 97 97 84 81 79 72 75 77 67 58 41 24 32 69 77 76 72 67 65 59 56
163 162 163 161 165 161 141 138 125 134 127 127 126 128 130 116 96 97 73 61 65 75 55 69 71 74 84 91 78 80 77 66 50 26 47 59 71 78 77 71 63 59 57
166 169 167 172 171 164 153 152 151 153 135 143 140 143 126 123 122 118 109 107 70 79 87 81 83 91 86 88 99 89 81 74 59 40 46 66 66 64 64 66 65 64 59
173 173 173 173 173 159 158 153 160 154 160 162 150 156 145 151 144 136 137 132 115 113 110 98 93 87 85 96 101 108 102 96 82 57 32 71 70 70 67 63 61 60 58
178 180 178 176 172 164 160 168 171 159 164 164 156 160 159 155 142 143 138 136 132 137 113 110 104 104 97 95 84 95 123 124 115 105 86 65 77 71 69 65 59 56 51
178 178 177 178 167 164 161 164 160 166 147 154 157 147 163 150 159 149 142 139 138 127 115 96 82 79 84 77 72 71 100 141 137 131 120 105 75 78 74 65 58 53 49
173 175 177 174 169 169 160 157 157 156 158 148 146 150 148 155 152 150 137 138 149 117 110 102 102 82 95 87 74 43 87 97 145 154 148 136 127 80 56 77 70 64 52
166 171 168 162 161 151 149 150 142 152 145 145 132 140 148 151 155 142 144 146 139 109 110 112 62 95 69 66 111 98 32 192 177 185 168 165 172 152 178 283 85 103 71
155 160 153 156 160 159 137 122 122 113 115 140 132 150 149 151 154 142 138 144 134 112 102 84 116 67 114 109 41 13 21 344 209 184 200 185 204 188 231 290 344 320 198
154 163 165 154 151 153 145 146 143 143 155 144 147 160 160 143 146 144 143 143 135 132 149 142 110 102 46 48 44 351 350 22 23 237 145 48 331 256 232 253 291 296 303
171 169 176 168 149 154 162 145 147 148 128 92 100 163 163 150 150 153 153 159 146 127 133 149 135 108 86 72 121 97 9 335 0 27 50 125 182 11 16 2 339 318 324
175 173 167 164 161 153 152 120 109 83 75 74 161 219 202 158 158 151 156 151 152 140 161 171 151 148 153 311 111 135 81 237 321 328 331 353 25 40 6 25 47 18 349
185 174 157 146 158 157 158 168 167 161 158 196 162 156 203 173 164 153 156 161 168 167 166 175 167 152 129 174 4 182 123 146 190 314 325 331 341 55 48 16 12 6 12
214 182 144 139 150 159 162 165 167 137 139 148 137 140 205 188 165 163 167 164 161 172 165 163 148 151 152 139 165 150 84 71 92 134 250 310 352 1 340 339 331 339 337
166 155 147 139 150 167 170 162 152 144 147 170 139 148 191 165 167 167 145 145 141 137 144 144 129 129 132 110 112 123 157 166 183 141 182 267 237 293 314 320 322 317 314